{"data":{"norad_id":65353,"intl_designator":"2025-190C","name":"STARLINK-34828","alt_names":[],"object_type":"PAYLOAD","status":"ACTIVE","operator":null,"country":"US","launch_date":"2025-08-28","launch_site_code":"AFETR","launch_vehicle":null,"mission":null,"orbit_class":"UNKNOWN","rcs_meters":null,"size_class":null,"mass_kg":null,"dimensions":null,"purposes":["comms"],"wikipedia_slug":null,"has_3d_model":false,"image_url":null,"decayed_at":null,"tle_current":{"epoch":"2026-05-25T01:44:16.908288Z","epoch_age_seconds":58986,"freshness":"FRESH","line1":"1 65353U 25190C   26145.07241792  .00018605  00000+0  63839-3 0  9990","line2":"2 65353  53.1592 173.1110 0001463  80.6994 279.4172 15.30215902 41457","mean_motion":15.30215902,"eccentricity":0.0001463,"inclination_deg":53.1592,"raan_deg":173.111,"arg_perigee_deg":80.6994,"mean_anomaly_deg":279.4172,"bstar":0.00063839,"rev_number":4145,"period_min":94.104367763916,"perigee_km":474.16495086344,"apogee_km":476.17022778628,"semimajor_km":6853.3045893249,"source":"CELESTRAK","updated_at":"2026-05-25T13:38:20.764959Z"}}}